| time (UTC) | temp F | wind direction | speed knots | gust knots | rain 1hr in | rain 24hr in | rain mn in | humidity % | barometer mb |
| 20260509021706 | 60 | 185 | 1.7 | 6.1 | 0.01 | 0.06 | 0.06 | 82 | 1016.9 |
| 20260509021206 | 60 | 207 | 4.3 | 6.1 | 0.01 | 0.06 | 0.06 | 82 | 1016.9 |
| 20260509020205 | 60 | 220 | 1.7 | 5.2 | 0.01 | 0.06 | 0.06 | 89 | 1017.1 |
| 20260509015706 | 59 | 160 | 3.5 | 7.0 | 0.01 | 0.06 | 0.06 | 90 | 1017.2 |
| 20260509015206 | 58 | 176 | 3.5 | 7.0 | 0.01 | 0.06 | 0.06 | 92 | 1017.3 |
| 20260509014705 | 57 | 161 | 3.5 | 7.0 | 0.01 | 0.06 | 0.06 | 94 | 1017.5 |
| 20260509013705 | 57 | 188 | 2.6 | 7.8 | 0.01 | 0.06 | 0.06 | 94 | 1017.7 |
| 20260509011705 | 58 | 188 | 2.6 | 6.1 | 0.00 | 0.05 | 0.05 | 95 | 1018.0 |
| 20260509003705 | 57 | 212 | 2.6 | 6.1 | 0.01 | 0.05 | 0.05 | 99 | 1018.0 |
| 20260509003205 | 57 | 222 | 2.6 | 7.0 | 0.01 | 0.05 | 0.05 | 99 | 1017.9 |
| 20260509002706 | 57 | 233 | 1.7 | 6.1 | 0.01 | 0.05 | 0.05 | 99 | 1017.9 |
| 20260509002205 | 55 | 196 | 0.0 | 5.2 | 0.01 | 0.05 | 0.05 | 99 | 1017.8 |
| 20260509000705 | 56 | 207 | 2.6 | 6.1 | 0.01 | 0.05 | 0.05 | 99 | 1018.1 |
| 20260508234706 | 56 | 235 | 3.5 | 8.7 | 0.00 | 0.04 | 0.04 | 99 | 1018.3 |
| 20260508234205 | 56 | 224 | 3.5 | 7.0 | 0.00 | 0.04 | 0.04 | 99 | 1018.1 |
| 20260508233705 | 56 | 210 | 0.9 | 5.2 | 0.00 | 0.04 | 0.04 | 99 | 1018.0 |
| 20260508233206 | 56 | 235 | 3.5 | 6.1 | 0.00 | 0.04 | 0.04 | 99 | 1018.0 |
| 20260508232705 | 56 | 226 | 1.7 | 5.2 | 0.00 | 0.04 | 0.04 | 99 | 1018.0 |
| 20260508231206 | 55 | 239 | 1.7 | 6.1 | 0.00 | 0.04 | 0.04 | 99 | 1017.9 |
| 20260508230706 | 55 | 227 | 1.7 | 5.2 | 0.00 | 0.04 | 0.04 | 99 | 1018.0 |
| 20260508230206 | 55 | 235 | 2.6 | 6.1 | 0.00 | 0.04 | 0.04 | 99 | 1017.8 |
| 20260508225705 | 55 | 240 | 2.6 | 4.3 | 0.01 | 0.04 | 0.04 | 99 | 1017.8 |
| 20260508224705 | 55 | 236 | 2.6 | 4.3 | 0.01 | 0.04 | 0.04 | 99 | 1017.7 |
| 20260508224205 | 55 | 255 | 2.6 | 6.1 | 0.01 | 0.04 | 0.04 | 99 | 1017.9 |
| 20260508223706 | 55 | 234 | 2.6 | 5.2 | 0.01 | 0.04 | 0.04 | 99 | 1017.8 |
| 20260508222705 | 55 | 237 | 1.7 | 4.3 | 0.01 | 0.04 | 0.04 | 99 | 1017.7 |
| 20260508222206 | 55 | 255 | 2.6 | 4.3 | 0.01 | 0.04 | 0.04 | 99 | 1017.5 |
| 20260508221705 | 55 | 252 | 2.6 | 4.3 | 0.02 | 0.04 | 0.04 | 99 | 1017.6 |
| 20260508221205 | 55 | 246 | 2.6 | 4.3 | 0.03 | 0.04 | 0.04 | 99 | 1017.4 |
| 20260508220705 | 55 | 253 | 2.6 | 4.3 | 0.03 | 0.04 | 0.04 | 99 | 1017.4 |
| 20260508215705 | 55 | 241 | 1.7 | 4.3 | 0.02 | 0.03 | 0.03 | 99 | 1017.6 |
| 20260508215205 | 55 | 241 | 1.7 | 2.6 | 0.02 | 0.03 | 0.03 | 99 | 1017.5 |
| 20260508214705 | 55 | 236 | 1.7 | 2.6 | 0.02 | 0.03 | 0.03 | 99 | 1017.3 |
| 20260508214205 | 55 | 239 | 1.7 | 4.3 | 0.02 | 0.03 | 0.03 | 99 | 1017.4 |
| 20260508213705 | 55 | 245 | 1.7 | 2.6 | 0.02 | 0.03 | 0.03 | 99 | 1017.4 |
| 20260508213204 | 55 | 242 | 1.7 | 4.3 | 0.02 | 0.03 | 0.03 | 99 | 1017.5 |
| 20260508212705 | 55 | 250 | 2.6 | 4.3 | 0.02 | 0.03 | 0.03 | 99 | 1017.4 |
| 20260508211705 | 55 | 246 | 0.9 | 4.3 | 0.02 | 0.02 | 0.02 | 99 | 1017.2 |
| 20260508211205 | 55 | 231 | 0.0 | 0.0 | 0.01 | 0.01 | 0.01 | 99 | 1017.3 |
| 20260508210705 | 55 | 228 | 0.0 | 0.0 | 0.01 | 0.01 | 0.01 | 99 | 1017.2 |
| 20260508210205 | 55 | 227 | 0.0 | 0.0 | 0.01 | 0.01 | 0.01 | 99 | 1017.2 |
| 20260508205705 | 54 | 229 | 0.0 | 0.0 | 0.01 | 0.01 | 0.01 | 99 | 1017.1 |
| 20260508204705 | 54 | 228 | 0.0 | 0.0 | 0.01 | 0.01 | 0.01 | 99 | 1017.0 |
| 20260508204205 | 54 | 226 | 0.0 | 1.7 | 0.01 | 0.01 | 0.01 | 99 | 1016.9 |
| 20260508203706 | 54 | 229 | 0.9 | 2.6 | 0.01 | 0.01 | 0.01 | 99 | 1016.9 |
| 20260508203204 | 54 | 230 | 1.7 | 4.3 | 0.01 | 0.01 | 0.01 | 99 | 1017.0 |
| 20260508202705 | 54 | 239 | 2.6 | 5.2 | 0.01 | 0.01 | 0.01 | 99 | 1016.8 |
| 20260508202205 | 54 | 232 | 1.7 | 4.3 | 0.00 | 0.00 | 0.00 | 99 | 1016.8 |
| 20260508201704 | 54 | 240 | 1.7 | 6.1 | 0.00 | 0.00 | 0.00 | 99 | 1016.7 |
| 20260508201205 | 54 | 222 | 0.9 | 2.6 | 0.00 | 0.00 | 0.00 | 99 | 1016.7 |
| 20260508200705 | 54 | 220 | 0.0 | 2.6 | 0.00 | 0.00 | 0.00 | 99 | 1016.8 |
| 20260508200205 | 54 | 224 | 0.9 | 1.7 | 0.00 | 0.00 | 0.00 | 99 | 1016.7 |
| 20260508195705 | 54 | 224 | 0.9 | 2.6 | 0.00 | 0.00 | 0.00 | 99 | 1016.7 |
| 20260508195205 | 54 | 230 | 1.7 | 2.6 | 0.00 | 0.00 | 0.00 | 99 | 1016.5 |
| 20260508194705 | 54 | 231 | 0.9 | 2.6 | 0.00 | 0.00 | 0.00 | 99 | 1016.6 |
| 20260508194204 | 54 | 232 | 0.9 | 1.7 | 0.00 | 0.00 | 0.00 | 99 | 1016.7 |
| 20260508193705 | 54 | 238 | 1.7 | 2.6 | 0.00 | 0.00 | 0.00 | 99 | 1016.5 |
| 20260508193205 | 54 | 234 | 1.7 | 1.7 | 0.00 | 0.00 | 0.00 | 99 | 1016.6 |
| 20260508192705 | 54 | 223 | 0.0 | 0.0 | 0.00 | 0.00 | 0.00 | 99 | 1016.5 |
| 20260508192205 | 54 | 222 | 0.9 | 1.7 | 0.00 | 0.00 | 0.00 | 99 | 1016.5 |
| 20260508191705 | 54 | 227 | 0.9 | 1.7 | 0.00 | 0.00 | 0.00 | 99 | 1016.4 |
| 20260508191205 | 54 | 227 | 0.0 | 1.7 | 0.00 | 0.00 | 0.00 | 98 | 1016.4 |
| 20260508185706 | 54 | 228 | 1.7 | 2.6 | 0.00 | 0.00 | 0.00 | 98 | 1016.3 |
| 20260508185205 | 54 | 228 | 1.7 | 4.3 | 0.00 | 0.00 | 0.00 | 98 | 1016.5 |
| 20260508184205 | 54 | 230 | 1.7 | 4.3 | 0.00 | 0.00 | 0.00 | 98 | 1016.3 |
| 20260508183205 | 54 | 232 | 1.7 | 4.3 | 0.00 | 0.00 | 0.00 | 98 | 1016.3 |
| 20260508182705 | 54 | 233 | 0.9 | 2.6 | 0.00 | 0.00 | 0.00 | 98 | 1016.4 |
| 20260508182206 | 54 | 228 | 1.7 | 4.3 | 0.00 | 0.00 | 0.00 | 98 | 1016.4 |
| 20260508181205 | 54 | 230 | 1.7 | 2.6 | 0.00 | 0.00 | 0.00 | 97 | 1016.3 |
| 20260508180705 | 54 | 231 | 1.7 | 4.3 | 0.00 | 0.00 | 0.00 | 97 | 1016.5 |
| 20260508180205 | 55 | 224 | 1.7 | 2.6 | 0.00 | 0.00 | 0.00 | 97 | 1016.4 |
| 20260508175705 | 55 | 228 | 0.9 | 2.6 | 0.00 | 0.00 | 0.00 | 97 | 1016.4 |
| 20260508175205 | 55 | 224 | 1.7 | 2.6 | 0.00 | 0.00 | 0.00 | 97 | 1016.6 |
| 20260508174705 | 55 | 222 | 0.9 | 1.7 | 0.00 | 0.00 | 0.00 | 97 | 1016.5 |
| 20260508174204 | 55 | 222 | 0.9 | 2.6 | 0.00 | 0.00 | 0.00 | 96 | 1016.5 |
| 20260508173705 | 55 | 223 | 0.9 | 2.6 | 0.00 | 0.00 | 0.00 | 96 | 1016.6 |
| 20260508173205 | 55 | 224 | 1.7 | 2.6 | 0.00 | 0.00 | 0.00 | 96 | 1016.6 |
| 20260508172705 | 55 | 223 | 0.9 | 1.7 | 0.00 | 0.00 | 0.00 | 95 | 1016.6 |
| 20260508172205 | 55 | 225 | 0.9 | 2.6 | 0.00 | 0.00 | 0.00 | 95 | 1016.7 |
| 20260508171705 | 55 | 232 | 1.7 | 2.6 | 0.00 | 0.00 | 0.00 | 94 | 1016.8 |
| 20260508171204 | 55 | 230 | 1.7 | 2.6 | 0.00 | 0.00 | 0.00 | 94 | 1016.6 |
| 20260508170705 | 55 | 211 | 0.0 | 1.7 | 0.00 | 0.00 | 0.00 | 93 | 1016.8 |
| 20260508170205 | 55 | 216 | 0.0 | 1.7 | 0.00 | 0.00 | 0.00 | 93 | 1016.6 |
| 20260508165705 | 55 | 211 | 0.9 | 1.7 | 0.00 | 0.00 | 0.00 | 93 | 1016.7 |
| 20260508165205 | 55 | 205 | 0.9 | 1.7 | 0.00 | 0.00 | 0.00 | 92 | 1016.7 |
| 20260508164707 | 55 | 205 | 0.0 | 2.6 | 0.00 | 0.00 | 0.00 | 92 | 1016.8 |
| 20260508164204 | 55 | 198 | 0.9 | 4.3 | 0.00 | 0.00 | 0.00 | 92 | 1016.8 |
| 20260508163705 | 55 | 213 | 1.7 | 2.6 | 0.00 | 0.00 | 0.00 | 91 | 1016.7 |
| 20260508163205 | 55 | 217 | 1.7 | 5.2 | 0.00 | 0.00 | 0.00 | 91 | 1016.7 |
| 20260508162205 | 55 | 210 | 0.9 | 4.3 | 0.00 | 0.00 | 0.00 | 91 | 1016.8 |
| 20260508161705 | 55 | 219 | 0.9 | 5.2 | 0.00 | 0.00 | 0.00 | 91 | 1016.8 |
| 20260508161205 | 55 | 231 | 1.7 | 6.1 | 0.00 | 0.00 | 0.00 | 90 | 1016.7 |
| 20260508160704 | 55 | 218 | 0.9 | 2.6 | 0.00 | 0.00 | 0.00 | 90 | 1016.9 |
| 20260508160206 | 55 | 231 | 0.9 | 4.3 | 0.00 | 0.00 | 0.00 | 90 | 1016.8 |
| 20260508155705 | 55 | 228 | 1.7 | 4.3 | 0.00 | 0.00 | 0.00 | 90 | 1016.8 |
| 20260508155204 | 55 | 229 | 1.7 | 2.6 | 0.00 | 0.00 | 0.00 | 89 | 1016.8 |
| 20260508154204 | 55 | 222 | 1.7 | 2.6 | 0.00 | 0.00 | 0.00 | 89 | 1016.8 |
| 20260508153705 | 55 | 202 | 0.0 | 0.9 | 0.00 | 0.00 | 0.00 | 89 | 1016.7 |
| 20260508153205 | 56 | 195 | 0.9 | 2.6 | 0.00 | 0.00 | 0.00 | 88 | 1016.6 |
| 20260508152705 | 56 | 202 | 0.9 | 4.3 | 0.00 | 0.00 | 0.00 | 88 | 1016.8 |
| 20260508152205 | 56 | 205 | 1.7 | 5.2 | 0.00 | 0.00 | 0.00 | 88 | 1016.8 |
| 20260508151705 | 56 | 217 | 0.9 | 1.7 | 0.00 | 0.00 | 0.00 | 88 | 1016.7 |
| 20260508151205 | 56 | 193 | 1.7 | 5.2 | 0.00 | 0.00 | 0.00 | 88 | 1016.9 |
| 20260508150705 | 56 | 216 | 0.9 | 2.6 | 0.00 | 0.00 | 0.00 | 88 | 1016.7 |
| 20260508150205 | 56 | 205 | 0.9 | 6.1 | 0.00 | 0.00 | 0.00 | 88 | 1016.7 |
| 20260508145705 | 56 | 215 | 1.7 | 2.6 | 0.00 | 0.00 | 0.00 | 89 | 1016.8 |
| 20260508145204 | 56 | 207 | 0.9 | 4.3 | 0.00 | 0.00 | 0.00 | 89 | 1016.5 |
| 20260508144705 | 56 | 211 | 0.9 | 2.6 | 0.00 | 0.00 | 0.00 | 89 | 1016.7 |
| 20260508144204 | 56 | 219 | 0.9 | 4.3 | 0.00 | 0.00 | 0.00 | 89 | 1016.8 |
| 20260508143205 | 56 | 220 | 0.9 | 2.6 | 0.00 | 0.00 | 0.00 | 89 | 1016.9 |
| 20260508142706 | 56 | 216 | 0.0 | 4.3 | 0.00 | 0.00 | 0.00 | 89 | 1016.7 |
| 20260508142206 | 56 | 206 | 1.7 | 4.3 | 0.00 | 0.00 | 0.00 | 89 | 1016.9 |
| 20260508141704 | 56 | 217 | 0.9 | 1.7 | 0.00 | 0.00 | 0.00 | 89 | 1017.0 |
| 20260508141206 | 56 | 208 | 0.0 | 2.6 | 0.00 | 0.00 | 0.00 | 89 | 1016.8 |
| 20260508140704 | 56 | 216 | 0.9 | 1.7 | 0.00 | 0.00 | 0.00 | 89 | 1016.9 |
| 20260508140205 | 56 | 207 | 0.9 | 5.2 | 0.00 | 0.00 | 0.00 | 89 | 1016.9 |
| 20260508135706 | 56 | 211 | 1.7 | 5.2 | 0.00 | 0.00 | 0.00 | 89 | 1017.1 |
| 20260508135205 | 56 | 214 | 0.9 | 1.7 | 0.00 | 0.00 | 0.00 | 89 | 1017.1 |
| 20260508134705 | 56 | 212 | 1.7 | 2.6 | 0.00 | 0.00 | 0.00 | 88 | 1017.1 |
| 20260508134205 | 56 | 217 | 1.7 | 4.3 | 0.00 | 0.00 | 0.00 | 88 | 1017.1 |
| 20260508133705 | 56 | 227 | 1.7 | 2.6 | 0.00 | 0.00 | 0.00 | 88 | 1017.0 |
| 20260508132705 | 56 | 233 | 1.7 | 4.3 | 0.00 | 0.00 | 0.00 | 87 | 1017.2 |
| 20260508132204 | 56 | 217 | 1.7 | 5.2 | 0.00 | 0.00 | 0.00 | 87 | 1017.2 |
| 20260508131704 | 56 | 217 | 1.7 | 4.3 | 0.00 | 0.00 | 0.00 | 87 | 1017.2 |
| 20260508131204 | 56 | 211 | 0.9 | 5.2 | 0.00 | 0.00 | 0.00 | 87 | 1017.1 |
| 20260508130705 | 56 | 210 | 1.7 | 5.2 | 0.00 | 0.00 | 0.00 | 87 | 1017.0 |
| 20260508130205 | 56 | 205 | 2.6 | 4.3 | 0.00 | 0.00 | 0.00 | 87 | 1017.2 |
| 20260508125205 | 56 | 195 | 0.9 | 5.2 | 0.00 | 0.00 | 0.00 | 87 | 1017.3 |
| 20260508124705 | 56 | 228 | 1.7 | 4.3 | 0.00 | 0.00 | 0.00 | 87 | 1017.4 |
| 20260508123705 | 56 | 213 | 0.9 | 4.3 | 0.00 | 0.00 | 0.00 | 87 | 1017.4 |
| 20260508123205 | 56 | 209 | 1.7 | 4.3 | 0.00 | 0.00 | 0.00 | 87 | 1017.4 |
| 20260508122706 | 56 | 218 | 2.6 | 5.2 | 0.00 | 0.00 | 0.00 | 87 | 1017.5 |
| 20260508121705 | 56 | 228 | 2.6 | 4.3 | 0.00 | 0.00 | 0.00 | 87 | 1017.5 |
| 20260508121206 | 56 | 229 | 0.9 | 2.6 | 0.00 | 0.00 | 0.00 | 88 | 1017.6 |
| 20260508120205 | 56 | 214 | 0.9 | 2.6 | 0.00 | 0.00 | 0.00 | 88 | 1017.5 |
| 20260508114204 | 56 | 194 | 0.9 | 2.6 | 0.00 | 0.00 | 0.00 | 88 | 1017.4 |
| 20260508113705 | 56 | 225 | 1.7 | 7.0 | 0.00 | 0.00 | 0.00 | 88 | 1017.4 |
| 20260508113205 | 56 | 194 | 2.6 | 5.2 | 0.00 | 0.00 | 0.00 | 87 | 1017.4 |
| 20260508112704 | 56 | 195 | 1.7 | 5.2 | 0.00 | 0.00 | 0.00 | 87 | 1017.4 |
| 20260508111705 | 56 | 196 | 1.7 | 8.7 | 0.00 | 0.00 | 0.00 | 87 | 1017.3 |
| 20260508111205 | 56 | 190 | 3.5 | 7.8 | 0.00 | 0.00 | 0.00 | 87 | 1017.1 |
| 20260508110705 | 56 | 193 | 2.6 | 7.8 | 0.00 | 0.00 | 0.00 | 87 | 1017.1 |
| 20260508110205 | 56 | 193 | 2.6 | 7.0 | 0.00 | 0.00 | 0.00 | 87 | 1017.2 |
| 20260508105704 | 56 | 204 | 1.7 | 7.8 | 0.00 | 0.00 | 0.00 | 87 | 1017.2 |
| 20260508104706 | 56 | 216 | 2.6 | 7.8 | 0.00 | 0.00 | 0.00 | 86 | 1017.2 |
| 20260508104206 | 56 | 189 | 1.7 | 6.1 | 0.00 | 0.00 | 0.00 | 86 | 1017.1 |
| 20260508103705 | 56 | 191 | 1.7 | 6.1 | 0.00 | 0.00 | 0.00 | 85 | 1017.0 |
| 20260508103205 | 57 | 184 | 2.6 | 8.7 | 0.00 | 0.00 | 0.00 | 84 | 1017.1 |
| 20260508102206 | 57 | 199 | 2.6 | 7.8 | 0.00 | 0.00 | 0.00 | 83 | 1017.1 |
| 20260508101704 | 57 | 177 | 1.7 | 7.0 | 0.00 | 0.00 | 0.00 | 82 | 1017.0 |
| 20260508101205 | 57 | 187 | 2.6 | 6.1 | 0.00 | 0.00 | 0.00 | 81 | 1016.8 |
| 20260508100705 | 58 | 190 | 2.6 | 7.0 | 0.00 | 0.00 | 0.00 | 80 | 1016.8 |
| 20260508100205 | 58 | 195 | 1.7 | 7.0 | 0.00 | 0.00 | 0.00 | 80 | 1016.8 |
| 20260508095205 | 58 | 197 | 3.5 | 7.8 | 0.00 | 0.00 | 0.00 | 78 | 1016.6 |
| 20260508094705 | 58 | 200 | 2.6 | 7.8 | 0.00 | 0.00 | 0.00 | 78 | 1016.5 |
| 20260508094205 | 58 | 198 | 2.6 | 7.8 | 0.00 | 0.00 | 0.00 | 78 | 1016.7 |
| 20260508093705 | 58 | 226 | 1.7 | 7.0 | 0.00 | 0.00 | 0.00 | 77 | 1016.6 |
| 20260508093204 | 59 | 210 | 2.6 | 7.8 | 0.00 | 0.00 | 0.00 | 77 | 1016.5 |
| 20260508092704 | 59 | 196 | 2.6 | 8.7 | 0.00 | 0.00 | 0.00 | 76 | 1016.4 |
| 20260508092205 | 59 | 189 | 4.3 | 10.4 | 0.00 | 0.00 | 0.00 | 76 | 1016.5 |
| 20260508091704 | 59 | 177 | 2.6 | 6.1 | 0.00 | 0.00 | 0.00 | 76 | 1016.2 |
| 20260508091205 | 59 | 217 | 2.6 | 7.0 | 0.00 | 0.00 | 0.00 | 76 | 1016.4 |
| 20260508090704 | 59 | 181 | 2.6 | 10.4 | 0.00 | 0.00 | 0.00 | 76 | 1016.2 |
| 20260508090205 | 60 | 201 | 1.7 | 6.1 | 0.00 | 0.00 | 0.00 | 76 | 1016.3 |
| 20260508085704 | 60 | 185 | 1.7 | 5.2 | 0.00 | 0.00 | 0.00 | 76 | 1016.3 |
| 20260508085205 | 60 | 176 | 2.6 | 7.8 | 0.00 | 0.00 | 0.00 | 75 | 1016.2 |
| 20260508084704 | 60 | 202 | 1.7 | 7.0 | 0.00 | 0.00 | 0.00 | 75 | 1016.2 |
| 20260508084205 | 60 | 185 | 1.7 | 5.2 | 0.00 | 0.00 | 0.00 | 75 | 1016.0 |
| 20260508083704 | 60 | 203 | 2.6 | 6.1 | 0.00 | 0.00 | 0.00 | 74 | 1016.1 |
| 20260508083206 | 60 | 201 | 2.6 | 7.0 | 0.00 | 0.00 | 0.00 | 74 | 1016.0 |
| 20260508082204 | 61 | 168 | 4.3 | 7.8 | 0.00 | 0.00 | 0.00 | 73 | 1016.1 |